Time,TemperatureF,DewpointF,PressureIn,WindDirection,WindDirectionDegrees,WindSpeedMPH,WindSpeedGustMPH,Humidity,HourlyPrecipIn,Conditions,Clouds,dailyrainin,SolarRadiationWatts/m^2,SoftwareType,DateUTC
2013-11-25 00:11:00,27.0,24.0,-100.00,West,280,6.0,9.0,87,0.00,,,0.08,0.000000,,2013-11-25 07:11:00,
2013-11-25 00:21:00,27.0,24.0,-100.00,West,280,6.0,9.0,87,0.00,,,0.08,0.000000,,2013-11-25 07:21:00,
2013-11-25 00:32:00,27.0,24.0,-100.00,West,280,6.0,9.0,87,0.00,,,0.08,0.000000,,2013-11-25 07:32:00,
2013-11-25 01:11:00,26.0,23.0,-100.00,West,273,5.0,9.0,87,0.00,,,0.08,0.000000,,2013-11-25 08:11:00,
2013-11-25 01:21:00,26.0,23.0,-100.00,West,273,5.0,9.0,87,0.00,,,0.08,0.000000,,2013-11-25 08:21:00,
2013-11-25 01:32:00,26.0,23.0,-100.00,West,273,5.0,9.0,87,0.00,,,0.08,0.000000,,2013-11-25 08:32:00,
2013-11-25 02:11:00,25.0,21.0,-100.00,WNW,282,4.0,9.0,84,0.00,,,0.08,0.000000,,2013-11-25 09:11:00,
2013-11-25 02:21:00,25.0,21.0,-100.00,WNW,282,4.0,9.0,84,0.00,,,0.08,0.000000,,2013-11-25 09:21:00,
2013-11-25 02:33:00,25.0,21.0,-100.00,WNW,282,4.0,9.0,84,0.00,,,0.08,0.000000,,2013-11-25 09:33:00,
2013-11-25 03:12:00,25.0,17.0,-100.00,WNW,289,5.0,7.0,71,0.00,,,0.08,0.000000,,2013-11-25 10:12:00,
2013-11-25 03:23:00,25.0,17.0,-100.00,WNW,289,5.0,7.0,71,0.00,,,0.08,0.000000,,2013-11-25 10:23:00,
2013-11-25 03:33:00,25.0,17.0,-100.00,WNW,289,5.0,7.0,71,0.00,,,0.08,0.000000,,2013-11-25 10:33:00,
2013-11-25 04:12:00,25.0,18.0,-100.00,South,177,0.0,7.0,74,0.00,,,0.08,0.000000,,2013-11-25 11:12:00,
2013-11-25 04:22:00,25.0,18.0,-100.00,South,177,0.0,7.0,74,0.00,,,0.08,0.000000,,2013-11-25 11:22:00,
2013-11-25 04:33:00,25.0,18.0,-100.00,South,177,0.0,7.0,74,0.00,,,0.08,0.000000,,2013-11-25 11:33:00,
2013-11-25 05:11:00,27.0,18.0,-100.00,WSW,256,2.0,6.0,69,0.00,,,0.08,0.000000,,2013-11-25 12:11:00,
2013-11-25 05:21:00,27.0,18.0,-100.00,WSW,256,2.0,6.0,69,0.00,,,0.08,0.000000,,2013-11-25 12:21:00,
2013-11-25 05:32:00,27.0,18.0,-100.00,WSW,256,2.0,6.0,69,0.00,,,0.08,0.000000,,2013-11-25 12:32:00,
2013-11-25 06:11:00,29.0,17.0,-100.00,WSW,249,2.0,8.0,61,0.00,,,0.08,0.000000,,2013-11-25 13:11:00,
2013-11-25 06:21:00,29.0,17.0,-100.00,WSW,249,2.0,8.0,61,0.00,,,0.08,0.000000,,2013-11-25 13:21:00,
2013-11-25 06:32:00,29.0,17.0,-100.00,WSW,249,2.0,8.0,61,0.00,,,0.08,0.000000,,2013-11-25 13:32:00,
2013-11-25 07:11:00,28.0,21.0,-100.00,West,277,2.0,9.0,74,0.00,,,0.08,0.000000,,2013-11-25 14:11:00,
2013-11-25 07:21:00,28.0,21.0,-100.00,West,277,2.0,9.0,74,0.00,,,0.08,0.000000,,2013-11-25 14:21:00,
2013-11-25 07:32:00,28.0,21.0,-100.00,West,277,2.0,9.0,74,0.00,,,0.08,0.000000,,2013-11-25 14:32:00,
2013-11-25 08:11:00,33.0,22.0,-100.00,West,276,1.0,17.0,64,0.00,,,0.08,26.000000,,2013-11-25 15:11:00,
2013-11-25 08:21:00,33.0,22.0,-100.00,West,276,1.0,17.0,64,0.00,,,0.08,26.000000,,2013-11-25 15:21:00,
2013-11-25 08:33:00,33.0,22.0,-100.00,West,276,1.0,17.0,64,0.00,,,0.08,26.000000,,2013-11-25 15:33:00,
2013-11-25 09:13:00,35.0,22.0,-100.00,North,356,9.0,16.0,58,0.00,,,0.08,249.000000,,2013-11-25 16:13:00,
2013-11-25 09:23:00,35.0,22.0,-100.00,North,356,9.0,16.0,58,0.00,,,0.08,249.000000,,2013-11-25 16:23:00,
2013-11-25 09:33:00,35.0,22.0,-100.00,North,356,9.0,16.0,58,0.00,,,0.08,249.000000,,2013-11-25 16:33:00,
2013-11-25 10:12:00,38.0,22.0,-100.00,North,350,9.0,19.0,51,0.00,,,0.08,489.000000,,2013-11-25 17:12:00,
2013-11-25 10:22:00,38.0,22.0,-100.00,North,350,9.0,19.0,51,0.00,,,0.08,489.000000,,2013-11-25 17:22:00,
2013-11-25 10:33:00,38.0,22.0,-100.00,North,350,9.0,19.0,51,0.00,,,0.08,489.000000,,2013-11-25 17:33:00,
2013-11-25 11:12:00,38.0,27.0,-100.00,North,7,11.0,17.0,65,0.01,,,-99.99,683.000000,,2013-11-25 18:12:00,
2013-11-25 11:21:00,38.0,27.0,-100.00,North,7,11.0,17.0,65,0.01,,,-99.99,683.000000,,2013-11-25 18:21:00,
2013-11-25 11:33:00,38.0,27.0,-100.00,North,7,11.0,17.0,65,0.01,,,-99.99,683.000000,,2013-11-25 18:33:00,
2013-11-25 12:11:00,38.0,28.0,-100.00,North,359,8.0,17.0,66,0.00,,,0.09,670.000000,,2013-11-25 19:11:00,
2013-11-25 12:21:00,38.0,28.0,-100.00,North,359,8.0,17.0,66,0.00,,,0.09,670.000000,,2013-11-25 19:21:00,
2013-11-25 12:32:00,38.0,28.0,-100.00,North,359,8.0,17.0,66,0.00,,,0.09,670.000000,,2013-11-25 19:32:00,
2013-11-25 13:12:00,39.0,28.0,-100.00,North,349,8.0,21.0,65,0.02,,,0.11,873.000000,,2013-11-25 20:12:00,
2013-11-25 13:21:00,39.0,28.0,-100.00,North,349,8.0,21.0,65,0.02,,,0.11,873.000000,,2013-11-25 20:21:00,
2013-11-25 13:32:00,39.0,28.0,-100.00,North,349,8.0,21.0,65,0.02,,,0.11,873.000000,,2013-11-25 20:32:00,
2013-11-25 14:11:00,39.0,29.0,-100.00,North,355,10.0,18.0,67,0.04,,,0.15,842.000000,,2013-11-25 21:11:00,
2013-11-25 14:22:00,39.0,29.0,-100.00,North,355,10.0,18.0,67,0.04,,,0.15,842.000000,,2013-11-25 21:22:00,
2013-11-25 14:33:00,39.0,29.0,-100.00,North,355,10.0,18.0,67,0.04,,,0.15,842.000000,,2013-11-25 21:33:00,
2013-11-25 15:13:00,39.0,26.0,-100.00,North,359,10.0,19.0,60,0.04,,,0.16,733.000000,,2013-11-25 22:13:00,
2013-11-25 15:23:00,39.0,26.0,-100.00,North,359,10.0,19.0,60,0.04,,,0.16,733.000000,,2013-11-25 22:23:00,
2013-11-25 15:33:00,39.0,26.0,-100.00,North,359,10.0,19.0,60,0.04,,,0.16,733.000000,,2013-11-25 22:33:00,
2013-11-25 16:12:00,42.0,24.0,-100.00,NNW,328,3.0,12.0,48,0.04,,,0.19,505.000000,,2013-11-25 23:12:00,
2013-11-25 16:22:00,42.0,24.0,-100.00,NNW,328,3.0,12.0,48,0.04,,,0.19,505.000000,,2013-11-25 23:22:00,
2013-11-25 16:33:00,42.0,24.0,-100.00,NNW,328,3.0,12.0,48,0.04,,,0.19,505.000000,,2013-11-25 23:33:00,
2013-11-25 17:11:00,37.0,26.0,-100.00,West,279,3.0,11.0,65,0.02,,,0.19,304.000000,,2013-11-26 00:11:00,
2013-11-25 17:21:00,37.0,26.0,-100.00,West,279,3.0,11.0,65,0.02,,,0.19,304.000000,,2013-11-26 00:21:00,
2013-11-25 17:32:00,37.0,26.0,-100.00,West,279,3.0,11.0,65,0.02,,,0.19,304.000000,,2013-11-26 00:32:00,
2013-11-25 18:11:00,33.0,26.0,-100.00,ENE,72,4.0,7.0,74,0.00,,,0.18,32.000000,,2013-11-26 01:11:00,
2013-11-25 18:21:00,33.0,26.0,-100.00,ENE,72,4.0,7.0,74,0.00,,,0.18,32.000000,,2013-11-26 01:21:00,
2013-11-25 18:32:00,33.0,26.0,-100.00,ENE,72,4.0,7.0,74,0.00,,,0.18,32.000000,,2013-11-26 01:32:00,
2013-11-25 19:11:00,36.0,16.0,-100.00,NE,43,9.0,14.0,43,0.00,,,0.17,0.000000,,2013-11-26 02:11:00,
2013-11-25 19:22:00,36.0,16.0,-100.00,NE,43,9.0,14.0,43,0.00,,,0.17,0.000000,,2013-11-26 02:22:00,
2013-11-25 19:32:00,36.0,16.0,-100.00,NE,43,9.0,14.0,43,0.00,,,0.17,0.000000,,2013-11-26 02:32:00,
2013-11-25 20:11:00,36.0,19.0,-100.00,ENE,63,8.0,11.0,49,0.00,,,0.17,0.000000,,2013-11-26 03:11:00,
2013-11-25 20:22:00,36.0,19.0,-100.00,ENE,63,8.0,11.0,49,0.00,,,0.17,0.000000,,2013-11-26 03:22:00,
2013-11-25 20:33:00,36.0,19.0,-100.00,ENE,63,8.0,11.0,49,0.00,,,0.17,0.000000,,2013-11-26 03:33:00,
2013-11-25 21:13:00,37.0,19.0,-100.00,NE,44,8.0,14.0,47,0.00,,,0.17,0.000000,,2013-11-26 04:13:00,
2013-11-25 21:23:00,37.0,19.0,-100.00,NE,44,8.0,14.0,47,0.00,,,0.17,0.000000,,2013-11-26 04:23:00,
2013-11-25 21:34:00,37.0,19.0,-100.00,NE,44,8.0,14.0,47,0.00,,,0.17,0.000000,,2013-11-26 04:34:00,
2013-11-25 22:12:00,40.0,16.0,-100.00,NE,37,14.0,19.0,38,0.00,,,0.17,0.000000,,2013-11-26 05:12:00,
2013-11-25 22:23:00,40.0,16.0,-100.00,NE,37,14.0,19.0,38,0.00,,,0.17,0.000000,,2013-11-26 05:23:00,
2013-11-25 22:33:00,40.0,16.0,-100.00,NE,37,14.0,19.0,38,0.00,,,0.17,0.000000,,2013-11-26 05:33:00,
2013-11-25 23:12:00,36.0,22.0,-100.00,NE,43,11.0,20.0,57,0.00,,,0.17,0.000000,,2013-11-26 06:12:00,
2013-11-25 23:22:00,36.0,22.0,-100.00,NE,43,11.0,20.0,57,0.00,,,0.17,0.000000,,2013-11-26 06:22:00,
2013-11-25 23:32:00,36.0,22.0,-100.00,NE,43,11.0,20.0,57,0.00,,,0.17,0.000000,,2013-11-26 06:32:00,